TITAN 3C TRANSTAGE DEB, 27791

Orbit data source: Space-Track

TITAN 3C TRANSTAGE DEB, 27791 is space debris in HEO originally from a launch on Tue, 21 Dec 1965 UTC launched from the Air Force Eastern Test Range (AFETR). Debris objects in space refer to the collection of defunct objects orbiting the Earth. Examples of debris include non-operational satellites, rocket bodies, and fragments generated from explosions, collisions, or faulty payload assembly.

Loading next visibility...
Identifier
27791, 1965-108BF
Orbit
HEO
Country
Flag of USUS
Related business
Manufacturer
Unknown
Mission
Spacecraft
Bus & Motor
Unknown
Mass
Unknown
Launch date (UTC)
1965-12-21 (60 years ago)
Launch vehicle
Unknown
Launch site
Air Force Eastern Test Range (AFETR)
Object type
Payload
Rocket body
Debris
Shape & HBR
Unknown shape, 1.1 m
Radar Cross Section
Medium (>0.1 m² and <1 m²)

Expand to show TLE details & history
Last TLE update: 2 months ago

TLE from 2 months ago
0 TITAN 3C TRANSTAGE DEB
1 27791U 65108BF  26123.39279884 -.00000901  00000-0 -23235-1 0  9998
2 27791  26.5095 226.9567 6777535 202.8018 101.2646  2.63371525  2458
Epoch: 2026-05-03T09:25Z
TLE epoch observation values (Epoch: 2026-05-03T09:25:37.819Z)
Latitude
0.00021°
Longitude
-135.70615°
Altitude
25,577.523 km
Speed
2.637 km/s
True Right ascension
15h 07m 59s
True Declination
0° 00' 01"
Sunlit
Object was in daylight at epoch
Visualization orbit readout
Latitude
Unknown
Longitude
Unknown
Altitude
Unknown
Speed
Unknown
Apparent Right ascension
Unknown
Apparent Declination
Unknown
Sunlit
N/A
Visualization observer readout
Local Sidereal Time
21:10:48
Azimuth
Unknown
Elevation
Unknown
Doppler factor
Unknown
Orbital elements
Apogee altitude
30,788.49 km
Perigee altitude
760.466 km
Semi-major axis
22,152.615 km
Eccentricity
0.67775
Inclination
26.5095°
RAAN
226.9567°
Arg. of periapsis
202.8018°
True anomaly
157.25921°
Mean anomaly
101.2646°
Eccentric anomaly
130.70332°
Mean motion
0.65827 °/min
Orbital period
546.89 mins
BSTAR
-0.023235

Documentation

Showing up to 5 results
|